SA3PJN-WX Weather Reports


Display with metric or nautical units.
time (UTC)temp
F
wind
direction
speed
MPH
gust
MPH
rain 1hr
in
rain 24hr
in
rain mn
in
humidity
%
barometer
mb
20260503004908 31 135 3.0 13.0 0.00 0.00 0.00 85 966.0
20260503004408 31 136 3.0 13.0 0.00 0.00 0.00 85 966.0
20260503003838 31 152 3.0 9.0 0.00 0.00 0.00 85 966.0
20260503003338 31 109 5.0 13.0 0.00 0.00 0.00 85 966.0
20260503002808 31 2 5.0 13.0 0.00 0.00 0.00 84 966.0
20260503002308 31 183 5.0 13.0 0.00 0.00 0.00 84 966.0
20260503001808 31 179 5.0 14.0 0.00 0.00 0.00 84 966.0
20260503001308 31 189 6.0 14.0 0.00 0.00 0.00 84 966.0
20260503000808 31 182 6.0 15.0 0.00 0.00 0.00 84 966.0
20260503000238 31 168 5.0 15.0 0.00 0.00 0.00 84 966.0
20260502235738 31 161 4.0 15.0 0.00 0.00 0.00 84 966.0
20260502235238 31 101 5.0 13.0 0.00 0.00 0.00 83 966.0
20260502234708 31 94 5.0 13.0 0.00 0.00 0.00 82 965.6
20260502234208 32 208 6.0 13.0 0.00 0.00 0.00 82 966.0
20260502233638 32 148 6.0 16.0 0.00 0.00 0.00 82 965.6
20260502233138 32 183 6.0 16.0 0.00 0.00 0.00 83 966.0
20260502232637 32 164 4.0 15.0 0.00 0.00 0.00 84 965.6
20260502232137 31 95 4.0 15.0 0.00 0.00 0.00 84 966.0
20260502231637 31 138 4.0 13.0 0.00 0.00 0.00 85 966.0
20260502231107 31 53 4.0 13.0 0.00 0.00 0.00 86 966.0
20260502230538 32 147 5.0 14.0 0.00 0.00 0.00 86 965.6
20260502230037 32 89 5.0 14.0 0.00 0.00 0.00 86 966.0
20260502225537 32 123 5.0 14.0 0.00 0.00 0.00 85 966.0
20260502225007 32 177 5.0 14.0 0.00 0.00 0.00 85 966.0
20260502224507 32 157 4.0 14.0 0.00 0.00 0.00 84 966.0
20260502224007 32 161 4.0 13.0 0.00 0.00 0.00 84 966.0
20260502223437 32 95 4.0 14.0 0.00 0.00 0.00 84 966.0
20260502222937 32 216 4.0 14.0 0.00 0.00 0.00 84 966.0
20260502222437 32 96 4.0 12.0 0.00 0.00 0.00 84 966.0
20260502221907 33 66 3.0 12.0 0.00 0.00 0.00 84 965.6
20260502221337 33 75 3.0 14.0 0.00 0.00 0.00 83 966.0
20260502220837 33 122 3.0 14.0 0.00 0.00 0.00 83 966.0
20260502220337 33 116 2.0 9.0 0.00 0.00 0.00 83 966.0
20260502215837 33 153 2.0 9.0 0.00 0.00 0.00 82 966.0
20260502215337 33 115 3.0 9.0 0.00 0.00 0.00 82 966.0
20260502214837 34 123 5.0 14.0 0.00 0.00 0.00 81 966.0
20260502214337 34 192 5.0 16.0 0.00 0.00 0.00 81 966.0
20260502213837 34 81 6.0 16.0 0.00 0.00 0.00 81 965.6
20260502213307 34 104 6.0 16.0 0.00 0.00 0.00 80 966.0
20260502212807 34 98 5.0 16.0 0.00 0.00 0.00 79 966.0
20260502212237 34 173 4.0 13.0 0.00 0.00 0.00 80 966.0
20260502211737 34 127 2.0 8.0 0.00 0.00 0.00 82 966.0
20260502211237 35 160 3.0 11.0 0.00 0.00 0.00 82 966.0
20260502210707 35 93 3.0 11.0 0.00 0.00 0.00 81 966.0
20260502210207 35 82 3.0 12.0 0.00 0.00 0.00 80 966.0
20260502205707 36 121 3.0 12.0 0.00 0.00 0.00 81 966.0
20260502205207 36 185 4.0 10.0 0.00 0.00 0.00 81 966.2
20260502204707 36 42 5.0 16.0 0.00 0.00 0.00 81 966.1
20260502204137 36 176 6.0 16.0 0.00 0.00 0.00 80 966.1
20260502203637 36 191 6.0 16.0 0.00 0.00 0.00 80 966.0
20260502203137 36 189 6.0 19.0 0.00 0.00 0.00 79 966.0
20260502202637 37 202 6.0 19.0 0.00 0.00 0.00 79 966.0
20260502202137 37 98 5.0 16.0 0.00 0.00 0.00 78 966.0
20260502201637 37 171 5.0 14.0 0.00 0.00 0.00 78 966.0
20260502201137 37 118 5.0 14.0 0.00 0.00 0.00 77 966.0
20260502200636 37 125 5.0 15.0 0.00 0.00 0.00 77 966.0
20260502200136 37 126 5.0 15.0 0.00 0.00 0.00 76 966.0
20260502195636 37 121 5.0 14.0 0.00 0.00 0.00 75 966.0
20260502195136 37 187 5.0 15.0 0.00 0.00 0.00 75 966.0
20260502194636 38 85 6.0 15.0 0.00 0.00 0.00 73 966.0
20260502194136 38 200 6.0 15.0 0.00 0.00 0.00 73 966.0
20260502193636 38 197 7.0 17.0 0.00 0.00 0.00 73 966.0
20260502193136 38 251 7.0 17.0 0.00 0.00 0.00 73 966.0
20260502192607 38 193 6.0 15.0 0.00 0.00 0.00 73 965.6
20260502192106 38 156 5.0 15.0 0.00 0.00 0.00 72 965.6
20260502191606 38 167 4.0 10.0 0.00 0.00 0.00 73 965.6
20260502191106 38 191 4.0 12.0 0.00 0.00 0.00 74 965.6
20260502190606 38 155 5.0 12.0 0.00 0.00 0.00 74 965.5
20260502190106 38 163 4.0 11.0 0.00 0.00 0.00 74 965.5
20260502185606 38 158 4.0 11.0 0.00 0.00 0.00 73 965.5
20260502185106 38 197 5.0 11.0 0.00 0.00 0.00 74 965.6
20260502184606 38 152 5.0 14.0 0.00 0.00 0.00 75 965.4
20260502184036 38 214 6.0 14.0 0.00 0.00 0.00 76 965.6
20260502183536 38 123 6.0 14.0 0.00 0.00 0.00 77 965.4
20260502183006 38 168 5.0 12.0 0.00 0.00 0.00 78 965.4
20260502182436 38 149 6.0 17.0 0.00 0.00 0.00 78 965.4
20260502181936 38 165 6.0 17.0 0.00 0.00 0.00 78 965.4
20260502181406 38 195 6.0 17.0 0.00 0.00 0.00 78 965.3
20260502180906 38 145 6.0 16.0 0.00 0.00 0.00 77 965.3
20260502180406 38 168 6.0 18.0 0.00 0.00 0.00 79 965.6
20260502170336 39 178 7.0 15.0 0.00 0.00 0.00 77 965.4
20260502164306 40 197 7.0 17.0 0.00 0.00 0.00 78 965.2
20260502163806 40 171 7.0 19.0 0.00 0.00 0.00 80 965.1
20260502163236 40 186 8.0 19.0 0.00 0.00 0.00 80 965.2
20260502162736 40 186 9.0 21.0 0.00 0.00 0.00 81 965.2
20260502162235 40 188 8.0 21.0 0.00 0.00 0.00 82 965.1
20260502161705 41 165 8.0 21.0 0.00 0.00 0.00 83 965.1
20260502161205 41 172 8.0 18.0 0.00 0.00 0.00 84 965.0
20260502160635 41 207 8.0 18.0 0.00 0.00 0.00 86 965.1
20260502160106 41 198 7.0 17.0 0.00 0.00 0.00 86 965.0
20260502152035 42 181 5.0 14.0 0.00 0.00 0.00 89 965.1
20260502151535 42 202 6.0 17.0 0.00 0.00 0.00 89 965.1
20260502151035 41 189 6.0 17.0 0.00 0.00 0.00 89 965.4
20260502150505 41 173 6.0 15.0 0.00 0.00 0.00 90 965.4
20260502130434 45 226 6.0 12.0 0.00 0.00 0.00 91 964.9
20260502123404 48 18 3.0 13.0 0.00 0.00 0.00 75 964.9
20260502122904 48 99 3.0 13.0 0.00 0.00 0.00 75 964.9
20260502122404 48 113 2.0 10.0 0.00 0.00 0.00 74 964.9
20260502121904 48 119 1.0 8.0 0.00 0.00 0.00 72 965.0
20260502121404 49 35 1.0 6.0 0.00 0.00 0.00 71 964.9
20260502120904 49 300 1.0 6.0 0.00 0.00 0.00 72 965.0
20260502120404 49 92 1.0 8.0 0.00 0.00 0.00 72 965.0
20260502115904 49 105 2.0 8.0 0.00 0.00 0.00 70 965.0
20260502115404 49 47 2.0 11.0 0.00 0.00 0.00 71 965.0
20260502114904 49 76 3.0 11.0 0.00 0.00 0.00 71 964.9
20260502114404 49 153 3.0 11.0 0.00 0.00 0.00 70 964.9
20260502113904 49 29 3.0 11.0 0.00 0.00 0.00 70 964.9
20260502113334 49 37 3.0 11.0 0.00 0.00 0.00 69 964.9
20260502112834 50 78 3.0 10.0 0.00 0.00 0.00 68 964.8
20260502112334 50 113 3.0 15.0 0.00 0.00 0.00 68 964.8
20260502111834 50 136 3.0 15.0 0.00 0.00 0.00 67 964.6
20260502111334 51 260 4.0 12.0 0.00 0.00 0.00 67 964.5
20260502110834 50 110 4.0 13.0 0.00 0.00 0.00 67 964.6
20260502110304 51 356 4.0 13.0 0.00 0.00 0.00 66 964.6
20260502105734 51 103 3.0 11.0 0.00 0.00 0.00 65 964.6
20260502105234 52 75 3.0 10.0 0.00 0.00 0.00 64 964.7
20260502104704 52 349 3.0 9.0 0.00 0.00 0.00 64 964.7
20260502104204 52 101 3.0 9.0 0.00 0.00 0.00 63 964.7
20260502103704 52 109 2.0 9.0 0.00 0.00 0.00 62 964.8
20260502103204 53 173 2.0 10.0 0.00 0.00 0.00 64 964.6
20260502102634 53 174 1.0 10.0 0.00 0.00 0.00 62 964.6
20260502102134 53 165 2.0 8.0 0.00 0.00 0.00 62 964.7
20260502101634 53 143 2.0 8.0 0.00 0.00 0.00 62 964.8
20260502101104 53 126 2.0 8.0 0.00 0.00 0.00 61 964.6
20260502100603 54 46 1.0 5.0 0.00 0.00 0.00 60 964.8
20260502091433 55 103 1.0 4.0 0.00 0.00 0.00 61 964.8
20260502090933 55 113 1.0 4.0 0.00 0.00 0.00 60 964.8
20260502090433 54 117 2.0 6.0 0.00 0.00 0.00 61 964.8
20260502071133 52 145 2.0 6.0 0.00 0.00 0.00 63 964.9
20260502070633 52 105 2.0 6.0 0.00 0.00 0.00 62 964.8
20260502070133 52 141 2.0 5.0 0.00 0.00 0.00 62 964.9
20260502065603 54 233 2.0 5.0 0.00 0.00 0.00 61 964.9
20260502065102 55 118 1.0 4.0 0.00 0.00 0.00 61 964.9
20260502064532 53 99 1.0 4.0 0.00 0.00 0.00 62 964.9
20260502064032 51 349 1.0 5.0 0.00 0.00 0.00 64 964.9
20260502063532 52 21 1.0 5.0 0.00 0.00 0.00 63 964.8
20260502063032 52 124 2.0 5.0 0.00 0.00 0.00 65 964.7
20260502062502 51 108 1.0 5.0 0.00 0.00 0.00 65 964.8
20260502061932 51 162 1.0 5.0 0.00 0.00 0.00 67 964.8
20260502061432 51 173 1.0 6.0 0.00 0.00 0.00 69 964.8
20260502060932 49 9 1.0 6.0 0.00 0.00 0.00 68 964.7
20260502060432 49 134 2.0 5.0 0.00 0.00 0.00 70 964.9
20260502055932 49 40 2.0 8.0 0.00 0.00 0.00 70 964.8
20260502055432 48 156 2.0 9.0 0.00 0.00 0.00 71 964.8
20260502054932 48 89 2.0 9.0 0.00 0.00 0.00 70 964.9
20260502054432 49 187 2.0 9.0 0.00 0.00 0.00 68 964.7
20260502053932 49 84 3.0 9.0 0.00 0.00 0.00 69 964.6
20260502053432 49 164 3.0 10.0 0.00 0.00 0.00 67 965.0
20260502052932 46 166 2.0 10.0 0.00 0.00 0.00 71 964.7
20260502052402 46 127 2.0 7.0 0.00 0.00 0.00 72 964.7
20260502051902 46 201 1.0 6.0 0.00 0.00 0.00 72 964.5
20260502051332 46 155 1.0 6.0 0.00 0.00 0.00 74 964.5
20260502050832 46 107 1.0 4.0 0.00 0.00 0.00 75 964.5
20260502050332 45 108 1.0 5.0 0.00 0.00 0.00 76 964.8
20260502045802 44 119 2.0 7.0 0.00 0.00 0.00 77 964.8
20260502045305 44 86 2.0 8.0 0.00 0.00 0.00 75 964.8
20260502044802 43 218 2.0 8.0 0.00 0.00 0.00 74 964.7
20260502044302 43 183 1.0 6.0 0.00 0.00 0.00 75 964.7
20260502043802 43 344 1.0 6.0 0.00 0.00 0.00 75 964.9
20260502043302 44 55 1.0 6.0 0.00 0.00 0.00 74 964.8
20260502042802 44 103 1.0 6.0 0.00 0.00 0.00 74 965.0
20260502042305 45 282 1.0 5.0 0.00 0.00 0.00 75 964.9
20260502041802 44 212 1.0 5.0 0.00 0.00 0.00 76 965.0
20260502041302 45 201 1.0 4.0 0.00 0.00 0.00 75 964.7
20260502040802 45 272 1.0 3.0 0.00 0.00 0.00 73 964.6
20260502040302 45 19 2.0 3.0 0.00 0.00 0.00 72 964.6
20260502035802 45 80 1.0 3.0 0.00 0.00 0.00 70 964.7
20260502035232 46 191 0.0 3.0 0.00 0.00 0.00 71 964.7
20260502034732 46 156 1.0 3.0 0.00 0.00 0.00 71 964.9
20260502034202 45 234 1.0 3.0 0.00 0.00 0.00 70 964.9
20260502033702 45 200 1.0 3.0 0.00 0.00 0.00 69 965.0
20260502033202 45 214 0.0 2.0 0.00 0.00 0.00 72 965.1
20260502032702 46 235 1.0 3.0 0.00 0.00 0.00 71 965.2
20260502032202 44 182 1.0 5.0 0.00 0.00 0.00 74 965.3
20260502031632 43 168 1.0 5.0 0.00 0.00 0.00 75 965.2
20260502031102 42 122 1.0 3.0 0.00 0.00 0.00 75 965.3
20260502030601 42 87 1.0 3.0 0.00 0.00 0.00 75 965.4
20260502025601 42 350 1.0 5.0 0.00 0.00 0.00 72 965.6
20260502025101 43 343 1.0 5.0 0.00 0.00 0.00 71 965.5
20260502024601 44 166 1.0 4.0 0.00 0.00 0.00 70 965.3
20260502024101 44 358 1.0 3.0 0.00 0.00 0.00 70 965.4
20260502023531 45 305 1.0 3.0 0.00 0.00 0.00 70 965.3
20260502023031 45 57 1.0 3.0 0.00 0.00 0.00 70 965.4
20260502022531 45 197 2.0 3.0 0.00 0.00 0.00 70 965.3
20260502022031 45 226 2.0 3.0 0.00 0.00 0.00 69 965.3
20260502021531 45 200 3.0 4.0 0.00 0.00 0.00 69 965.4
20260502021001 46 199 4.0 5.0 0.00 0.00 0.00 68 965.4
20260502020501 46 202 4.0 6.0 0.00 0.00 0.00 68 965.5
20260502015931 45 194 4.0 6.0 0.00 0.00 0.00 68 965.6
20260502015431 46 190 3.0 6.0 0.00 0.00 0.00 68 965.6
20260502014931 45 197 3.0 6.0 0.00 0.00 0.00 68 965.5
20260502014431 46 221 4.0 6.0 0.00 0.00 0.00 67 965.5
20260502013931 46 199 3.0 6.0 0.00 0.00 0.00 68 965.7
20260502013401 46 201 3.0 8.0 0.00 0.00 0.00 68 965.6
20260502012831 45 204 4.0 8.0 0.00 0.00 0.00 68 965.7
20260502012331 46 195 4.0 5.0 0.00 0.00 0.00 68 965.6
20260502011831 45 196 3.0 5.0 0.00 0.00 0.00 69 965.6
20260502011331 45 199 3.0 6.0 0.00 0.00 0.00 69 965.6
20260502010801 45 208 4.0 7.0 0.00 0.00 0.00 69 965.8
20260502010231 45 205 4.0 7.0 0.00 0.00 0.00 69 965.9
20260502005701 45 199 4.0 7.0 0.00 0.00 0.00 70 965.8
20260502005201 45 190 3.0 6.0 0.00 0.00 0.00 70 965.7